Home   Weather   Rotherham   Past weeks

Flag for United Kingdom Past Weather in Rotherham, England, United Kingdom — Yesterday and Last 2 Weeks

Now
38 °F

Fog.


Feels Like: 33 °F
Forecast: 33 / 43 °F
Wind: 6 mph from Southwest

Location: Nottingham Weather Centre

Current Time: Jan 25, 2017 at 1:32:58 am

Latest Report: Jan 25, 2017 at 12:00 am


Visibility: 3 mi

Pressure: 30.32 "Hg

Humidity: 97%

Dew Point: 37 °F

Location of RotherhamLocation

Past Weather in Rotherham — Graph

°F

Rotherham Temperature Yesterday

Maximum temperature yesterday: 41 °F (at 4:00 pm)
Minimum temperature yesterday: 28 °F (at 6:00 am)
Average temperature yesterday: 35 °F

High & Low Weather Summary for the Past Weeks

 TemperatureHumidityPressure
High51 °F (Jan 11, 6:00 am)100% (Jan 15, 5:00 am)30.67 "Hg (Jan 15, 5:00 am)
Low26 °F (Jan 22, 5:00 am)57% (Jan 11, 4:00 pm)29.41 "Hg (Jan 12, 6:00 pm)
Average39 °F90%30.23 "Hg
* Reported Jan 10 12:00 am — Jan 25 12:00 am, Rotherham, Weather by CustomWeather, © 2017

Note: Actual official high and low records may vary slightly from our data, if they occured in-between our weather recording intervals... More about our weather records

Advertising

Rotherham Weather History for the Previous 24 Hours

Scroll right to see more
 ConditionsComfort  
Time TempWeatherWind HumidityBarometerVisibility
12:00 am
Wed, Jan 25
38 °FFog.6 mph97%30.32 "Hg3 mi
11:00 pm
Tue, Jan 24
38 °FFog.5 mph97%30.33 "Hg3 mi
10:00 pm39 °FFog.5 mph97%30.32 "Hg4 mi
9:00 pm39 °FFog.5 mph97%30.32 "Hg4 mi
8:00 pm40 °FFog.5 mph94%30.32 "Hg4 mi
7:00 pm40 °FFog.5 mph96%30.32 "Hg4 mi
6:00 pm40 °FFog.5 mph96%30.31 "Hg4 mi
5:00 pm40 °FSmoke.3 mph94%30.31 "Hg3 mi
4:00 pm41 °FSmoke.3 mph92%30.31 "Hg4 mi
3:00 pm41 °FSmoke.3 mph92%30.30 "Hg3 mi
2:00 pm40 °FFog.5 mph94%30.32 "Hg2 mi
1:00 pm37 °FFog.3 mph97%30.34 "Hg2 mi
12:00 pm35 °FFog.3 mph97%30.34 "Hg2 mi
11:00 am34 °FFog.2 mph100%30.36 "Hg2 mi
10:00 am32 °FFog.5 mph100%30.35 "Hg1 mi
9:00 am30 °FFog.No wind99%30.34 "Hg1 mi
8:00 am30 °FFog.No wind100%30.32 "Hg1 mi
7:00 am29 °FChilly.No wind100%30.32 "Hg1 mi
6:00 am28 °FDuststorm.No wind100%30.31 "Hg1 mi
5:00 am29 °FDuststorm.No wind100%30.31 "Hg0 mi
4:00 am30 °FDuststorm.No wind100%30.30 "Hg0 mi
3:00 am31 °FDuststorm.No wind100%30.32 "Hg0 mi
2:00 am31 °FDuststorm.No wind100%30.32 "Hg0 mi
1:00 am31 °FDuststorm.No wind100%30.32 "Hg0 mi
Weather by CustomWeather, © 2017

See weather overviewHow to use our weather pages